TimeEDT,TemperatureF,Dew PointF,Humidity,Sea Level PressureIn,VisibilityMPH,Wind Direction,Wind SpeedMPH,Gust SpeedMPH,PrecipitationIn,Events,Conditions,WindDirDegrees,DateUTC
12:34 AM,57.2,55.4,94,30.03,7.0,Calm,Calm,-,N/A,,Clear,0,2012-09-15 04:34:00
12:54 AM,57.0,55.9,96,30.02,6.0,SW,3.5,-,0.00,Rain,Light Rain,220,2012-09-15 04:54:00
1:51 AM,57.2,55.4,94,30.01,2.0,Calm,Calm,-,0.00,,Clear,0,2012-09-15 05:51:00
1:54 AM,57.0,57.0,100,30.01,3.0,Calm,Calm,-,0.00,,Clear,0,2012-09-15 05:54:00
2:08 AM,57.2,57.2,100,30.00,2.0,Calm,Calm,-,N/A,,Partly Cloudy,0,2012-09-15 06:08:00
2:10 AM,55.4,55.4,100,30.00,1.0,Calm,Calm,-,N/A,,Mist,0,2012-09-15 06:10:00
2:22 AM,57.2,55.4,94,30.00,1.5,Calm,Calm,-,N/A,,Partly Cloudy,0,2012-09-15 06:22:00
2:30 AM,57.2,55.4,94,30.00,3.0,Calm,Calm,-,N/A,,Partly Cloudy,0,2012-09-15 06:30:00
2:54 AM,55.9,55.9,100,29.99,1.8,Calm,Calm,-,0.01,,Partly Cloudy,0,2012-09-15 06:54:00
2:57 AM,55.4,55.4,100,29.99,1.0,Calm,Calm,-,N/A,,Mist,0,2012-09-15 06:57:00
3:03 AM,55.4,55.4,100,29.99,1.5,Calm,Calm,-,N/A,,Partly Cloudy,0,2012-09-15 07:03:00
3:07 AM,55.4,55.4,100,29.99,3.0,Calm,Calm,-,N/A,,Partly Cloudy,0,2012-09-15 07:07:00
3:15 AM,55.4,55.4,100,29.99,2.5,WNW,3.5,-,N/A,,Partly Cloudy,300,2012-09-15 07:15:00
3:24 AM,55.4,55.4,100,29.98,3.0,Calm,Calm,-,N/A,,Clear,0,2012-09-15 07:24:00
3:54 AM,55.0,55.0,100,29.98,4.0,NW,3.5,-,N/A,,Clear,310,2012-09-15 07:54:00
4:04 AM,55.4,55.4,100,29.98,2.5,WNW,4.6,-,N/A,,Partly Cloudy,300,2012-09-15 08:04:00
4:07 AM,55.4,55.4,100,29.98,1.2,WNW,3.5,-,N/A,,Scattered Clouds,300,2012-09-15 08:07:00
4:12 AM,55.4,55.4,100,29.98,0.8,WNW,3.5,-,N/A,,Mist,300,2012-09-15 08:12:00
4:30 AM,57.2,57.2,100,29.99,0.2,WNW,3.5,-,N/A,Fog,Fog,300,2012-09-15 08:30:00
4:54 AM,57.0,57.0,100,29.98,0.5,Calm,Calm,-,N/A,Fog,Fog,0,2012-09-15 08:54:00
5:08 AM,55.4,55.4,100,29.99,1.5,Calm,Calm,-,N/A,,Mostly Cloudy,0,2012-09-15 09:08:00
5:24 AM,55.4,53.6,94,29.98,3.0,Calm,Calm,-,N/A,,Mostly Cloudy,0,2012-09-15 09:24:00
5:36 AM,53.6,53.6,100,29.98,1.8,Calm,Calm,-,N/A,,Overcast,0,2012-09-15 09:36:00
5:40 AM,53.6,53.6,100,29.98,0.8,Calm,Calm,-,N/A,,Mist,0,2012-09-15 09:40:00
5:54 AM,55.0,55.0,100,29.98,0.5,Calm,Calm,-,N/A,Fog,Fog,0,2012-09-15 09:54:00
6:09 AM,55.4,55.4,100,29.97,0.2,Calm,Calm,-,N/A,Fog,Fog,0,2012-09-15 10:09:00
6:24 AM,55.4,53.6,94,29.98,0.5,WSW,3.5,-,N/A,Fog,Fog,250,2012-09-15 10:24:00
6:35 AM,55.4,55.4,100,29.99,1.5,SSW,3.5,-,N/A,,Overcast,210,2012-09-15 10:35:00
6:43 AM,55.4,55.4,100,29.98,2.5,Calm,Calm,-,N/A,,Overcast,0,2012-09-15 10:43:00
6:54 AM,55.9,55.9,100,29.98,2.5,Calm,Calm,-,0.00,Rain,Light Rain,0,2012-09-15 10:54:00
7:01 AM,55.4,55.4,100,29.98,3.0,Calm,Calm,-,0.00,Rain,Light Rain,0,2012-09-15 11:01:00
7:54 AM,59.0,57.0,93,29.99,10.0,WSW,4.6,-,0.01,,Partly Cloudy,240,2012-09-15 11:54:00
8:54 AM,62.1,57.9,86,30.00,10.0,West,5.8,-,N/A,,Clear,260,2012-09-15 12:54:00
9:54 AM,66.9,51.1,57,30.01,10.0,WSW,5.8,-,N/A,,Clear,250,2012-09-15 13:54:00
10:54 AM,66.9,46.9,49,30.01,10.0,WNW,8.1,20.7,N/A,,Clear,300,2012-09-15 14:54:00
11:54 AM,70.0,48.0,46,30.00,10.0,WNW,12.7,19.6,N/A,,Partly Cloudy,290,2012-09-15 15:54:00
12:54 PM,70.0,46.0,42,29.99,10.0,West,9.2,21.9,N/A,,Partly Cloudy,280,2012-09-15 16:54:00
1:54 PM,68.0,46.0,45,29.99,10.0,WNW,11.5,23.0,N/A,,Scattered Clouds,300,2012-09-15 17:54:00
2:54 PM,66.9,46.0,47,29.98,10.0,WNW,17.3,26.5,N/A,,Partly Cloudy,300,2012-09-15 18:54:00
3:54 PM,66.0,45.0,47,29.99,10.0,WNW,12.7,24.2,0.00,,Partly Cloudy,300,2012-09-15 19:54:00
4:54 PM,63.0,45.0,52,30.01,10.0,West,5.8,16.1,N/A,,Mostly Cloudy,280,2012-09-15 20:54:00
5:54 PM,62.1,43.0,50,30.01,10.0,WNW,10.4,18.4,N/A,,Clear,290,2012-09-15 21:54:00
6:54 PM,59.0,42.1,53,30.01,10.0,West,11.5,18.4,N/A,,Clear,280,2012-09-15 22:54:00
7:54 PM,59.0,42.1,53,30.03,10.0,WNW,8.1,-,N/A,,Clear,290,2012-09-15 23:54:00
8:54 PM,57.0,43.0,59,30.03,10.0,West,4.6,-,N/A,,Mostly Cloudy,270,2012-09-16 00:54:00
9:54 PM,55.0,43.0,64,30.04,10.0,WSW,4.6,-,N/A,,Mostly Cloudy,250,2012-09-16 01:54:00
10:54 PM,55.0,43.0,64,30.04,10.0,Calm,Calm,-,N/A,,Scattered Clouds,0,2012-09-16 02:54:00
11:54 PM,55.9,43.0,62,30.03,10.0,WNW,5.8,-,N/A,,Partly Cloudy,300,2012-09-16 03:54:00